Location: Amberg
(48.0613°N, 10.6820°E)
Time: 00:30:59
(UTC+00:00)

SJ 16-02 - Pass Details

Date: 18 November 2025
Orbit: 585 x 594 km, 75.0° (Epoch: 05 December)

Event Time Altitude Azimuth Distance (km) Brightness Sun altitude
Rises 16:39:12 0° 167° (SSE) 2,823 4.8 -10.5°
Reaches altitude 10° 16:41:43 10° 154° (SSE) 1,926 3.8 -10.9°
Maximum altitude 16:45:12 25° 99° (E) 1,231 2.4 -11.5°
Enters shadow 16:47:28 16° 57° (ENE) 1,567 2.8 -11.9°
